Location: Newark
(51.0500°N, 12.4500°E)
Time: 18:06:08
(UTC+00:00)

X-37B - Pass Details

Date: 14 March 2021
Orbit: 380 x 394 km, 45.0° (Epoch: 07 April)

Event Time Altitude Azimuth Distance (km) Brightness Sun altitude
Rises 19:33:42 0° 247° (WSW) 2,273 5.1 -22.2°
Reaches altitude 10° 19:35:56 10° 235° (SW) 1,421 3.8 -22.5°
Enters shadow 19:36:47 16° 225° (SW) 1,141 3.1 -22.6°
